Tracking 29892 objects as of 21-Nov-2024
HD Live streaming from Space Station
objects crossing your sky now

STARLINK-5036

Track STARLINK-5036 now!
10-day predictions
STARLINK-5036 is classified as:


NORAD ID: 53917
Int'l Code: 2022-119AH
Perigee: 546.0 km
Apogee: 547.7 km
Inclination: 53.2 °
Period: 95.4 minutes
Semi major axis: 6917 km
RCS: Unknown
Launch date: September 24, 2022
Source: United States (US)
Launch site: AIR FORCE EASTERN TEST RANGE (AFETR)
Your satellite tracking list
Your tracking list is empty




NASA's NSSDC Master Catalog

Two Line Element Set (TLE):
1 53917U 22119AH  24325.86863284 -.00001411  00000-0 -70581-4 0  9995
2 53917  53.2173 281.2081 0001291  90.3136 269.8004 15.08851567120294
Source of the keplerian elements: AFSPC